Location: Memphis
(29.8667°N, 31.2500°E)
Time: 09:01:38
(UTC+00:00)

Cosmos 1939 Rocket - Pass Details

Date: 03 March 2021
Orbit: 534 x 582 km, 97.4° (Epoch: 15 April)

Event Time Altitude Azimuth Distance (km) Brightness Sun altitude
Rises 16:18:06 0° 181° (S) 2,675 6.4 -5.7°
Reaches altitude 10° 16:20:17 10° 187° (S) 1,783 5.6 -6.2°
Maximum altitude 16:23:57 44° 261° (W) 741 4.2 -7.0°
Drops below altitude 10° 16:27:40 10° 334° (NNW) 1,788 5.7 -7.8°
Sets 16:29:51 0° 341° (NNW) 2,683 6.6 -8.2°
